Total_Precipitation_Accumulation
2.07 2.07 2.02 2.00 1.88 1.96 2.12 2.31 2.36 2.69 2.81 2.44 2.06 1.93 1.91 1.98 1.91 1.88 1.80 1.69 1.62 1.76 2.14 2.38 2.24 2.00 1.71 1.47 1.33 1.22 1.10 0.96 0.87 0.76 0.76 0.83 0.83 0.77 0.70 0.63 0.58 0.50 0.44
2.19 2.31 2.16 2.13 1.99 1.95 2.11 2.29 2.45 2.94 2.95 2.76 2.34 2.10 2.02 1.97 1.81 1.73 1.81 1.99 1.80 1.68 1.82 2.11 2.33 2.30 2.15 1.91 1.64 1.44 1.28 1.18 1.03 0.81 0.70 0.75 0.77 0.75 0.75 0.73 0.66 0.56 0.47
2.18 2.21 2.04 1.94 1.99 2.12 2.30 2.32 2.45 2.76 2.52 2.52 2.31 2.13 1.93 1.74 1.57 1.52 1.70 1.87 1.75 1.69 1.81 1.96 2.15 2.25 2.36 2.40 2.24 2.06 1.70 1.44 1.24 1.01 0.83 0.77 0.79 0.74 0.72 0.74 0.72 0.65 0.53
2.07 2.23 2.04 1.89 2.20 2.27 2.35 2.57 2.71 2.72 2.67 2.68 2.44 2.09 1.85 1.73 1.40 1.29 1.32 1.45 1.65 1.45 1.70 1.92 1.98 2.05 2.29 2.59 2.82 2.85 2.47 2.00 1.66 1.42 1.16 1.00 0.97 0.89 0.75 0.70 0.73 0.68 0.52
2.13 2.39 2.37 2.46 2.52 2.57 2.60 2.47 2.78 2.81 2.70 2.71 2.36 2.08 1.71 1.52 1.33 1.18 1.13 1.11 1.27 1.37 1.45 1.57 1.69 1.79 2.17 2.78 3.11 3.28 3.20 2.76 2.20 1.87 1.66 1.49 1.41 1.18 0.91 0.79 0.79 0.75 0.61
2.25 2.60 2.46 2.46 2.55 2.70 2.74 2.68 2.72 2.72 2.46 2.43 2.20 1.97 1.58 1.26 1.18 1.12 0.98 0.97 1.05 1.05 1.29 1.56 1.71 1.50 1.82 2.39 2.76 3.18 3.49 3.31 2.70 2.33 2.18 2.06 1.95 1.64 1.16 0.92 0.87 0.84 0.78
2.24 2.58 2.48 2.65 2.60 2.61 2.62 2.64 2.68 2.54 2.17 2.36 2.45 1.99 1.47 1.16 1.17 0.97 0.88 0.92 0.98 1.01 1.27 1.55 1.71 1.67 1.51 1.59 1.88 2.32 2.90 3.20 2.99 2.65 2.49 2.36 2.35 2.12 1.55 1.23 1.10 0.96 0.94
2.44 2.45 2.57 2.54 2.57 2.68 2.59 2.54 2.60 2.43 2.05 2.19 2.41 2.47 1.86 1.49 1.16 0.83 0.92 1.03 1.12 1.24 1.30 1.40 1.57 1.73 1.70 1.87 1.68 1.59 2.07 2.74 3.17 3.13 2.83 2.39 2.16 2.03 1.81 1.66 1.44 1.23 1.17
2.63 2.60 2.57 2.46 2.40 2.27 2.30 2.36 2.36 2.35 2.22 2.11 2.31 2.58 2.18 1.71 1.41 1.03 1.00 1.07 1.24 1.44 1.45 1.50 1.53 1.71 1.84 2.14 2.22 1.97 1.75 2.00 2.69 3.38 3.43 2.86 2.27 1.95 1.85 1.84 1.81 1.62 1.49
2.50 2.27 2.16 2.20 2.18 2.06 2.06 1.85 1.93 2.07 2.05 1.88 2.03 2.09 2.11 2.14 2.05 1.48 1.13 1.03 1.19 1.34 1.46 1.37 1.38 1.58 1.87 2.05 2.22 2.12 1.72 1.56 1.89 2.74 3.23 3.09 2.62 2.13 1.87 1.90 2.21 2.21 1.88
2.20 1.89 1.81 1.88 1.87 1.79 1.72 1.67 1.80 1.72 1.66 1.64 1.79 1.97 2.04 2.11 2.08 1.95 1.56 1.47 1.48 1.39 1.33 1.34 1.48 1.61 1.72 1.95 2.22 2.02 1.90 1.75 1.64 1.74 2.12 2.45 2.58 2.40 2.27 2.42 2.78 2.97 2.72
1.88 1.62 1.49 1.60 1.70 1.73 1.68 1.65 1.73 1.63 1.62 1.72 1.70 1.76 1.96 1.97 1.97 2.10 1.81 1.68 1.64 1.43 1.36 1.42 1.48 1.65 1.70 1.84 1.87 1.97 1.89 1.65 1.49 1.43 1.52 1.77 2.05 2.19 2.27 2.50 2.94 3.33 3.46
1.59 1.53 1.53 1.58 1.63 1.71 1.61 1.63 1.68 1.72 1.82 1.86 1.77 1.72 1.81 1.84 1.90 2.05 2.04 1.86 1.78 1.63 1.64 1.61 1.47 1.49 1.42 1.55 1.63 1.63 1.43 1.32 1.17 1.12 1.15 1.23 1.37 1.60 1.84 2.13 2.55 3.00 3.31
1.69 1.72 1.67 1.55 1.52 1.61 1.53 1.72 1.65 1.68 1.84 1.83 1.63 1.82 1.86 1.87 2.06 2.23 2.31 2.37 2.17 1.94 1.88 1.87 1.75 1.55 1.44 1.44 1.46 1.40 1.20 1.13 0.94 0.89 0.90 0.92 0.98 1.12 1.34 1.56 1.85 2.15 2.42
1.81 1.91 1.84 1.71 1.61 1.66 1.78 2.00 1.94 1.93 2.08 2.02 1.96 2.10 2.05 1.95 2.04 2.13 2.28 2.43 2.53 2.29 2.13 2.07 1.90 1.62 1.48 1.46 1.43 1.27 1.29 1.18 0.98 0.89 0.83 0.78 0.79 0.88 0.94 1.04 1.20 1.41 1.62
1.68 1.82 1.94 1.88 1.79 1.80 1.95 2.09 2.09 2.22 2.34 2.28 2.31 2.38 2.30 2.15 2.18 2.23 2.24 2.40 2.62 2.56 2.26 1.93 1.77 1.57 1.47 1.31 1.38 1.26 1.25 1.20 1.05 0.94 0.82 0.75 0.74 0.77 0.76 0.80 0.90 1.01 1.18
1.63 1.70 1.86 1.93 1.87 1.86 1.98 2.03 1.98 2.22 2.32 2.30 2.27 2.27 2.22 2.27 2.27 2.17 2.23 2.37 2.56 2.61 2.31 1.89 1.80 1.79 1.75 1.61 1.54 1.44 1.32 1.25 1.08 0.99 0.87 0.82 0.77 0.76 0.76 0.76 0.79 0.83 0.91
1.68 1.74 1.84 1.86 1.76 1.77 1.91 1.94 1.99 2.19 2.27 2.16 2.11 2.10 1.93 1.97 2.00 1.89 1.99 2.07 2.17 2.36 2.32 2.07 2.04 2.05 2.01 1.88 1.82 1.75 1.57 1.35 1.12 1.07 0.93 0.86 0.82 0.77 0.74 0.75 0.79 0.83 0.89
1.65 1.71 1.71 1.72 1.76 1.87 1.95 1.94 1.93 1.91 1.89 1.94 2.11 2.16 1.94 1.93 1.83 1.81 1.83 1.80 1.87 2.00 2.15 2.09 2.05 2.10 2.05 2.02 1.93 1.74 1.63 1.49 1.20 1.11 1.05 0.96 0.88 0.81 0.77 0.77 0.79 0.86 0.94
1.54 1.61 1.67 1.75 1.81 1.87 1.90 1.94 1.96 1.89 1.85 1.86 1.96 1.99 1.92 1.87 1.79 1.87 1.81 1.78 1.80 1.91 2.03 2.05 2.02 2.14 2.15 2.07 2.06 1.87 1.85 1.71 1.52 1.27 1.18 1.06 1.04 1.02 0.96 0.89 0.85 0.87 0.98
1.59 1.64 1.70 1.73 1.72 1.72 1.63 1.63 1.68 1.68 1.78 1.75 1.66 1.66 1.64 1.70 1.69 1.68 1.54 1.65 1.79 1.86 1.90 1.92 1.95 2.11 2.28 2.31 2.12 2.02 2.07 2.00 1.82 1.55 1.43 1.26 1.17 1.11 1.07 1.03 0.97 0.92 0.93
1.62 1.64 1.63 1.70 1.69 1.46 1.58 1.56 1.53 1.65 1.74 1.73 1.64 1.55 1.47 1.45 1.40 1.37 1.33 1.38 1.57 1.72 1.78 1.86 1.87 1.98 2.18 2.37 2.42 2.36 2.24 2.14 2.09 1.93 1.85 1.72 1.49 1.38 1.27 1.16 1.12 1.06 0.99
1.70 1.68 1.63 1.62 1.65 1.70 1.70 1.52 1.39 1.40 1.51 1.55 1.52 1.50 1.34 1.25 1.36 1.32 1.33 1.30 1.31 1.43 1.53 1.67 1.76 1.76 1.91 2.14 2.37 2.32 2.37 2.38 2.35 2.32 2.32 2.25 1.94 1.72 1.49 1.32 1.17 0.94 0.86
1.89 1.86 1.80 1.71 1.72 1.71 1.63 1.43 1.40 1.36 1.41 1.44 1.46 1.48 1.46 1.39 1.40 1.48 1.48 1.42 1.31 1.27 1.31 1.35 1.45 1.56 1.76 2.01 2.26 2.24 2.24 2.32 2.35 2.34 2.39 2.40 2.15 1.96 1.71 1.51 1.36 1.10 0.92
1.96 1.91 1.88 1.91 1.86 1.88 1.89 1.69 1.65 1.54 1.56 1.59 1.60 1.59 1.57 1.50 1.58 1.51 1.45 1.43 1.38 1.36 1.35 1.38 1.36 1.48 1.68 1.78 1.93 2.01 2.00 2.04 1.98 1.91 2.04 2.22 2.21 2.13 1.97 1.70 1.44 1.24 1.00
2.02 2.07 2.09 2.07 2.07 2.11 2.29 2.06 1.88 1.73 1.76 1.77 1.84 1.80 1.77 1.63 1.62 1.52 1.41 1.44 1.44 1.44 1.47 1.42 1.36 1.35 1.40 1.58 1.74 1.77 1.90 2.02 1.90 1.76 1.56 1.66 1.85 2.03 2.17 1.97 1.70 1.48 1.33